This is the latest recevied weather packets stored in our database for station/object KD7CTY. If no packets are shown the sender has not sent any weather packets the latest 10 day(s).
| Time | Temp. | Humidity | Pressure | Rain* | Wind** | Luminosity | Snow |
|---|---|---|---|---|---|---|---|
| 1777388854 | 8.89° C | 94% | 1020.7 hPa | 0 mm | - | 29 W/m² | - |
| 1777388550 | 8.89° C | 94% | 1020.8 hPa | 0 mm | - | 33 W/m² | - |
| 1777388240 | 8.89° C | 94% | 1020.5 hPa | 0 mm | - | 33 W/m² | - |
| 1777387936 | 8.89° C | 95% | 1020.4 hPa | 0 mm | - | 30 W/m² | - |
| 1777387632 | 8.89° C | 94% | 1020.4 hPa | 0 mm | - | 27 W/m² | - |
| 1777387329 | 8.89° C | 95% | 1020.4 hPa | 0 mm | - | 22 W/m² | - |
| 1777387023 | 8.89° C | 95% | 1020.2 hPa | 0 mm | - | 22 W/m² | - |
| 1777386720 | 8.89° C | 95% | 1020 hPa | 0 mm | - | 22 W/m² | - |
| 1777386417 | 8.89° C | 95% | 1020.1 hPa | 0 mm | - | 15 W/m² | - |
| 1777386114 | 8.89° C | 95% | 1020 hPa | 0 mm | - | 13 W/m² | - |
| 1777385810 | 8.89° C | 95% | 1020.2 hPa | 0 mm | - | 15 W/m² | - |
| 1777385507 | 8.89° C | 95% | 1020.2 hPa | 0 mm | - | 17 W/m² | - |
| 1777385204 | 8.89° C | 95% | 1019.9 hPa | 0 mm | - | 18 W/m² | - |
| 1777384900 | 8.89° C | 95% | 1019.8 hPa | 0 mm | - | 22 W/m² | - |
| 1777384598 | 8.89° C | 95% | 1019.8 hPa | 0 mm | - | 17 W/m² | - |
| 1777384292 | 8.89° C | 95% | 1019.8 hPa | 0 mm | - | 12 W/m² | - |
| 1777383987 | 8.89° C | 95% | 1020 hPa | 0 mm | - | 7 W/m² | - |
| 1777383684 | 8.89° C | 95% | 1019.6 hPa | 0 mm | - | 6 W/m² | - |
| 1777383381 | 8.89° C | 95% | 1019.6 hPa | 0 mm | - | 6 W/m² | - |
| 1777383077 | 8.89° C | 95% | 1019.7 hPa | 0 mm | - | 3 W/m² | - |
| 1777382774 | 8.89° C | 95% | 1019.4 hPa | 0 mm | - | 2 W/m² | - |
| 1777382470 | 8.89° C | 95% | 1019.4 hPa | 0 mm | - | 3 W/m² | - |
| 1777382166 | 8.89° C | 94% | 1019.6 hPa | 0 mm | - | 1 W/m² | - |
| 1777381862 | 8.89° C | 94% | 1019.5 hPa | 0 mm | - | 0 W/m² | - |
| 1777381561 | 8.89° C | 94% | 1019.3 hPa | 0 mm | - | 0 W/m² | - |
* Rain latest hour (hover to see other rain measurements)
** Current wind speed in m/s (hover to see current wind gust speed)